[[{"header":{"parameterUnit":"m.s-1","parameterCategory":1,"la1":30.2992,"la2":30.254,"lo1":-89.0895,"lo2":-89.0443,"dy":0.0025,"dx":0.0025,"nx":19,"ny":19,"refTime":"2026-05-15T03:00:00:Z","depth":0,"parameterNumber":2,"parameterNumberName":"U-component_of_WINDS"},"data":[0,0,0,-4.0891,-4.0892,-4.092,-4.092,-4.0979,-4.098,0,0,0,0,0,0,0,0,0,0,0,-4.0896,-4.0896,-4.0891,-4.0892,-4.092,-4.092,-4.0979,-4.098,0,0,0,0,0,0,0,0,0,0,0,-4.0895,-4.0896,-4.0897,-4.0892,-4.092,-4.092,-4.0979,-4.0949,0,0,0,0,0,0,0,0,0,0,-4.0918,-4.0935,-4.0896,-4.0897,-4.0892,-4.092,-4.092,-4.0947,-4.0951,-4.0975,0,-4.1001,0,-4.0991,-4.0985,-4.0985,0,0,0,-4.0882,-4.0932,-4.0928,-4.0897,-4.0893,-4.092,-4.0905,-4.0949,-4.0953,-4.098,-4.1001,-4.1003,-4.0992,-4.0986,-4.0986,-4.116,-4.1161,0,0,-4.088,-4.0908,-4.0925,-4.0931,-4.0928,-4.0904,-4.0906,-4.0951,-4.0976,-4.1002,-4.1004,-4.0993,-4.0986,-4.0987,-4.1159,-4.116,0,0,0,-4.0882,-4.0907,-4.0901,-4.093,-4.0933,-4.0905,-4.0907,-4.0974,-4.097,-4.1004,-4.0994,-4.0987,-4.0988,-4.1157,-4.1159,-4.1248,0,0,0,-4.0881,-4.0908,-4.0901,-4.0919,-4.0933,-4.0954,-4.0929,-4.0967,-4.0971,-4.0994,-4.0987,-4.0988,-4.1156,-4.1158,-4.1242,-4.1284,0,0,0,-4.0889,-4.0909,-4.0918,-4.092,-4.0933,-4.0952,-4.095,-4.0967,-4.0965,-4.0985,-4.0989,-4.1155,-4.1158,-4.1237,-4.1276,-4.1336,0,0,0,-4.0906,-4.0998,-4.092,-4.1018,-4.0933,-4.1008,-4.095,-4.1004,-4.1033,-4.0987,-4.1156,-4.1159,-4.1236,-4.1271,-4.1331,-4.139,-4.1417,0,0,-4.1037,-4.1014,-4.107,-4.1001,-4.1097,-4.1001,-4.111,-4.1109,-4.1087,-4.1137,-4.1141,-4.1244,-4.1275,-4.1335,-4.1569,-4.1591,0,0,0,-4.1121,-4.1161,-4.118,-4.1208,-4.121,-4.1215,-4.1196,-4.1195,-4.1236,-4.1118,-4.1283,-4.13,-4.1334,-4.1361,-4.138,-4.1406,-4.1173,-4.1173,-4.1173,-4.1344,-4.131,-4.1399,-4.1368,-4.1396,-4.1375,-4.1394,-4.139,-4.1348,-4.1388,-4.1401,-4.1547,-4.1579,-4.1593,-4.1621,-4.1432,-4.1432,-4.1433,-4.1433,-4.153,-4.158,-4.1522,-4.1587,-4.155,-4.1604,-4.1588,-4.1557,-4.1601,-4.1534,-4.1562,-4.1489,-4.1619,-4.1641,-4.1439,-4.1438,-4.1437,-4.1437,-4.1436,-4.167,-4.1687,-4.1686,-4.1723,-4.1755,-4.1722,-4.1767,-4.1733,-4.1701,-4.1729,-4.1738,-4.1736,-4.1728,-4.1736,-4.1737,-4.1737,-4.1738,-4.1738,-4.1739,-4.1813,-4.1809,-4.1851,-4.1862,-4.1875,-4.1888,-4.1869,-4.1881,-4.1886,-4.1857,-4.1857,-4.1809,-4.1639,-4.1595,-4.1746,-4.1745,-4.1744,-4.1743,-4.1743,-4.2009,-4.1959,-4.2025,-4.2038,-4.2047,-4.2081,-4.2037,-4.2065,-4.207,-4.2094,-4.2041,-4.1922,-4.1896,-4.1881,-4.1844,-4.205,-4.205,-4.205,-4.205,-4.2124,-4.2109,-4.2167,-4.219,-4.2209,-4.2177,-4.2251,-4.2238,-4.2216,-4.2217,-4.2183,-4.2133,-4.2119,-4.2101,-4.2081,-4.2046,-4.2298,-4.2298,-4.2299,-4.2241,-4.2226,-4.2295,-4.2273,-4.2278,-4.2283,-4.2351,-4.238,-4.2346,-4.2308,-4.2216,-4.2206,-4.2124,-4.21,-4.2057,-4.2026,-4.1961,0,0]},{"header":{"parameterUnit":"m.s-1","parameterCategory":1,"la1":30.2992,"la2":30.254,"lo1":-89.0895,"lo2":-89.0443,"dy":0.0025,"dx":0.0025,"nx":19,"ny":19,"refTime":"2026-05-15T03:00:00:Z","depth":0,"parameterNumber":3,"parameterNumberName":"V-component_of_WINDS"},"data":[0,0,0,2.9243,2.9244,2.927,2.9271,2.9309,2.9309,0,0,0,0,0,0,0,0,0,0,0,2.9238,2.9239,2.9243,2.9244,2.927,2.9271,2.9309,2.9309,0,0,0,0,0,0,0,0,0,0,0,2.9238,2.9238,2.9239,2.9244,2.927,2.9271,2.9308,2.9287,0,0,0,0,0,0,0,0,0,0,2.926,2.9259,2.9238,2.9239,2.9244,2.927,2.9271,2.9286,2.9288,2.9298,0,2.9309,0,2.931,2.9312,2.9312,0,0,0,2.9241,2.9257,2.9261,2.9239,2.9244,2.927,2.9258,2.9287,2.929,2.9302,2.931,2.9311,2.931,2.9312,2.9312,2.9382,2.9382,0,0,2.924,2.9245,2.9259,2.9263,2.926,2.9257,2.9258,2.9289,2.9297,2.931,2.9312,2.9311,2.9312,2.9313,2.9382,2.9382,0,0,0,2.9237,2.9244,2.9247,2.9262,2.9266,2.9258,2.926,2.9296,2.9297,2.9312,2.9312,2.9313,2.9313,2.9381,2.9382,2.9408,0,0,0,2.9236,2.9242,2.9247,2.925,2.9266,2.9282,2.9266,2.9295,2.9298,2.9311,2.9313,2.9314,2.9381,2.9381,2.9407,2.942,0,0,0,2.9235,2.9242,2.9247,2.925,2.9262,2.9281,2.9283,2.9295,2.9298,2.9312,2.9314,2.938,2.9381,2.9405,2.9417,2.944,0,0,0,2.9236,2.927,2.9248,2.9286,2.9262,2.9298,2.9283,2.931,2.9325,2.9313,2.9381,2.9382,2.9405,2.9416,2.9438,2.9459,2.9468,0,0,2.9282,2.9276,2.9298,2.9279,2.932,2.9293,2.9338,2.9348,2.9344,2.9369,2.9371,2.9407,2.9417,2.9439,2.9519,2.9527,0,0,0,2.9315,2.9331,2.934,2.9356,2.9364,2.9372,2.9374,2.9378,2.9399,2.9358,2.9421,2.9427,2.944,2.9449,2.9456,2.9466,2.9387,2.9386,2.9386,2.9387,2.9381,2.9417,2.9414,2.9429,2.9431,2.9443,2.9447,2.9437,2.9452,2.9459,2.9508,2.952,2.9525,2.9536,2.947,2.947,2.947,2.947,2.9454,2.9475,2.9461,2.949,2.9484,2.9508,2.9511,2.9503,2.9524,2.9503,2.9513,2.949,2.9533,2.9542,2.9472,2.9472,2.9472,2.9471,2.9471,2.95,2.951,2.9513,2.9535,2.9552,2.9547,2.9569,2.9562,2.9555,2.9566,2.9573,2.9572,2.957,2.957,2.957,2.957,2.957,2.957,2.9571,2.9547,2.955,2.9569,2.9581,2.959,2.96,2.9602,2.961,2.9617,2.961,2.9611,2.9598,2.9539,2.9524,2.9573,2.9573,2.9572,2.9572,2.9572,2.9616,2.9599,2.9629,2.9638,2.965,2.9667,2.9658,2.9675,2.9681,2.9691,2.9677,2.9634,2.9627,2.9622,2.961,2.9678,2.9678,2.9678,2.9678,2.9655,2.9651,2.9679,2.9694,2.9707,2.9702,2.9734,2.9736,2.9735,2.9738,2.9727,2.971,2.9705,2.9701,2.9694,2.9682,2.9768,2.9768,2.9768,2.9697,2.9694,2.9724,2.9723,2.9732,2.974,2.977,2.9786,2.9782,2.9771,2.974,2.9736,2.9708,2.97,2.9688,2.9678,2.9656,0,0]}]]